Dati Storici

Data ora Umidita' aria (%) Temperatura aria (°C) Rad globale (W/m²) Gonioanemometro (°) Tacoanemometro (m/s) Pioggia (mm)
16-10-2012 19:20 64.8 % 15.454 1.371 174.697 1.646 0
16-10-2012 19:10 64.7 % 15.558 1.255 174.08 1.103 0
16-10-2012 19:00 64.7 % 15.677 1.243 210.117 1.581 0
16-10-2012 18:50 64.6 % 15.833 1.166 225.915 1.689 0
16-10-2012 18:40 65.6 % 15.923 1.692 203.039 0.843 0
16-10-2012 18:30 64.4 % 16.101 2.845 208.469 1.89 0
16-10-2012 18:20 62.4 % 16.365 6.239 153.607 1.578 0
16-10-2012 18:10 60.3 % 16.693 12.107 226.224 1.515 0
16-10-2012 18:00 59 % 16.683 25.431 213.913 2.559 0
16-10-2012 17:50 57.7 % 17.181 42.061 243.874 3.172 0
16-10-2012 17:40 57.5 % 17.211 64.769 220.86 1.52 0
16-10-2012 17:30 57 % 17.23 91.396 227.246 2.385 0
16-10-2012 17:20 56.6 % 17.508 108.847 216.025 3.606 0
16-10-2012 17:10 56.3 % 18.133 131.179 215.395 1.523 0
16-10-2012 17:00 53.1 % 18.136 157.259 221.666 2.119 0
16-10-2012 16:50 53 % 17.77 189.067 134.253 0.994 0
16-10-2012 16:40 52.3 % 18.067 211.245 246.699 1.8 0
16-10-2012 16:30 52.8 % 18.238 244.312 214.673 1.984 0
16-10-2012 16:20 51.8 % 17.972 270.086 214.938 1.672 0
16-10-2012 16:10 51.3 % 17.894 301.701 272.52 1.553 0

I dati sono presentati in modo automatico a scopo informativo. In seguito a verifica i dati possono subire modifiche o essere invalidati e non riportati negli archivi definitivi.